Hourly Data Report for November 05, 2019

MIRAMICHI RCS
NEW BRUNSWICK
Current Station Operator: ECCC - MSC

47°00'34.000" N
65°27'54.000" W
33.00 m
8100989
71744
ACQ

Download Data

Hourly Data (November 2019)
Hourly Data Report for November 5, 2019
TIME
LST
Temp Definition
°C
Dew Point Definition
°C
Rel Hum Definition
%
Precip. Amount Definition
mm

Wind Dir Definition
10's deg

Wind Spd Definition
km/h
Visibility Definition
km
Stn Press Definition
kPa
Hmdx Definition


Wind Chill Definition


Weather Definition


00:00 -1.9 -5.1 79 0.0 22 2   102.31   -3 LegendNANA
01:00 -2.8 -5.3 83 0.0 25 2   102.29   -4 LegendNANA
02:00 -3.0 -5.0 86 0.0   0   102.31     LegendNANA
03:00 -3.1 -4.7 89 0.0 26 3   102.35   -4 LegendNANA
04:00 -0.3 -2.5 85 0.0 21 4   102.30   -2 LegendNANA
05:00 0.0 -1.5 89 0.0 21 4   102.28   -1 LegendNANA
06:00 0.5 -1.2 89 0.0 20 5   102.26     LegendNANA
07:00 1.2 -1.0 85 0.0 17 3   102.24     LegendNANA
08:00 2.6 0.4 85 0.0 17 15   102.22     LegendNANA
09:00 4.8 1.8 81 0.0 18 16   102.23     LegendNANA
10:00 7.0 3.0 76 0.0 18 18   102.16     LegendNANA
11:00 8.7 3.9 72 0.0 20 16   102.12     LegendNANA
12:00 9.8 4.3 69 0.0 20 19   102.02     LegendNANA
13:00 10.8 4.7 66 0.0 20 24   101.93     LegendNANA
14:00 11.8 4.7 62 0.0 19 23   101.84     LegendNANA
15:00 11.2 5.1 66 0.0 18 25   101.83     LegendNANA
16:00 9.4 7.0 85 0.0 21 24   101.85     LegendNANA
17:00 9.2 5.7 79 0.0 18 11   101.77     LegendNANA
18:00 9.2 4.7 73 0.0 16 11   101.66     LegendNANA
19:00 9.8 4.4 69 0.0 17 22   101.53     LegendNANA
20:00 8.4 6.0 85 0.0 18 17   101.50     LegendNANA
21:00 7.9 6.8 93 1.5 18 15   101.47     LegendNANA
22:00 8.2 7.6 95 3.1 18 12   101.32     LegendNANA
23:00 8.0 7.6 97 3.2 29 5   101.17     LegendNANA

Notes on Data Quality.

Legend

  • E = Estimated
  • M = Missing
  • NA = Not Available*
  • [empty] = Indicates an unobserved value
Date modified: